White Mountain Summit Weather observations

Data are for 10 minute period ending at time listed.
 Day   Time   Solar   Ave.   Ave.  Ave.  Vector    Max.    Baro.  
  of    of     Rad.   Air    Rel.  Wind   Wind     Wind   Press.  
Year   Day            Temp.  Hum.  Speed  Dir.     Gust           
2020   (PST)   W/m2    F      %     mph   deg.      mph     mb.   
-------------------------------------------------------------------
 152   11:10    6.0   -148  -100.0     0      0.0     0.0   601.1 
 152   11:20    6.0   -148  -100.0     0      0.0     0.0   601.2 
 152   11:30    6.0   -148  -100.0     0      0.0     0.0   601.2 
 152   11:40    6.0   -148  -100.0     0      0.0     0.0   601.2 
 152   11:50    5.0   -148  -100.0     0      0.0     0.0   601.3 
 152   12:00    3.0   -148  -100.0     0      0.0     0.0   601.3 
 152   12:10    6.0   -148  -100.0     0      0.0     0.0   601.4 
 152   12:20    6.0   -148  -100.0     0      0.0     0.0   601.4 
 152   12:30    6.0   -148  -100.0     0      0.0     0.0   601.4 
 152   12:40    6.0   -148  -100.0     0      0.0     0.0   601.4 
 152   12:50    4.0   -148  -100.0     0      0.0     0.0   601.4 
 152   13:00    5.0   -148  -100.0     0      0.0     0.0   601.5 
 152   13:10    3.0   -148  -100.0     0      0.0     0.0   601.6 
 152   13:20    5.0   -148  -100.0     0      0.0     0.0   601.6 
 152   13:30    4.0   -148  -100.0     0      0.0     0.0   601.6 
 152   13:40    3.0   -148  -100.0     0      0.0     0.0   601.6 
 152   13:50    2.0   -148  -100.0     0      0.0     0.0   601.6 
 152   14:00    2.0   -148  -100.0     0      0.0     0.0   601.7 
 152   14:10    2.0   -148  -100.0     0      0.0     0.0   601.7 
 152   14:20    1.0   -148  -100.0     0      0.0     0.0   601.7 
 152   14:30    2.0   -148  -100.0     0      0.0     0.0   601.7 
 152   14:40    1.0   -148  -100.0     0      0.0     0.0   601.6 
 152   14:50    1.0   -148  -100.0     0      0.0     0.0   601.6 
 152   15:00    2.0   -148  -100.0     0      0.0     0.0   601.7 
 152   15:10    3.0   -148  -100.0     0      0.0     0.0   601.7 
 152   15:20    2.0   -148  -100.0     0      0.0     0.0   601.6 
 152   15:30    2.0   -148  -100.0     0      0.0     0.0   601.6 
 152   15:40    2.0   -148  -100.0     0      0.0     0.0   601.7 
 152   15:50    2.0   -148  -100.0     0      0.0     0.0   601.6 
 152   16:00    2.0   -148  -100.0     0      0.0     0.0   601.6 
 152   16:10    1.0   -148  -100.0     0      0.0     0.0   601.6 
 152   16:20    0.0   -148  -100.0     0      0.0     0.0   601.6 
 152   16:30    2.0   -148  -100.0     0      0.0     0.0   601.4 
 152   16:40    3.0   -148  -100.0     0      0.0     0.0   601.4 
 152   16:50    3.0   -148  -100.0     0      0.0     0.0   601.3 
 152   17:00    1.0   -148  -100.0     0      0.0     0.0   601.1 
 152   17:10    0.0   -148  -100.0     0      0.0     0.0   601.0 
 152   17:20    1.0   -148  -100.0     0      0.0     0.0   601.0 
 152   17:30    1.0   -148  -100.0     0      0.0     0.0   601.0 
 152   17:40    2.0   -148  -100.0     0      0.0     0.0   600.9 
 152   17:50    1.0   -148  -100.0     0      0.0     0.0   600.9 
 152   18:00    1.0   -148  -100.0     0      0.0     0.0   600.8 
 152   18:10    1.0   -148  -100.0     0      0.0     0.0   601.0 
 152   18:20    2.0   -148  -100.0     0      0.0     0.0   601.0 
 152   18:30    2.0   -148  -100.0     0      0.0     0.0   601.1 
 152   18:40    1.0   -148  -100.0     0      0.0     0.0   601.2 
 152   18:50    2.0   -148  -100.0     0      0.0     0.0   601.1 
 152   19:00    2.0   -148  -100.0     0      0.0     0.0   601.0 
 152   19:10    1.0   -148  -100.0     0      0.0     0.0   601.0 
 152   19:20    2.0   -148  -100.0     0      0.0     0.0   601.0 
 152   19:30    2.0   -148  -100.0     0      0.0     0.0   601.1 
 152   19:40    2.0   -148  -100.0     0      0.0     0.0   601.1 
 152   19:50    2.0   -148  -100.0     0      0.0     0.0   601.2 
 152   20:00    2.0   -148  -100.0     0      0.0     0.0   601.4 
 152   20:10    1.0   -148  -100.0     0      0.0     0.0   601.4 
 152   20:20    1.0   -148  -100.0     0      0.0     0.0   601.4 
 152   20:30    2.0   -148  -100.0     0      0.0     0.0   601.6 
 152   20:40    1.0   -148  -100.0     0      0.0     0.0   601.7 
 152   20:50    1.0   -148  -100.0     0      0.0     0.0   601.7 
 152   21:00    0.0   -148  -100.0     0      0.0     0.0   601.6 
 152   21:10    2.0   -148  -100.0     0      0.0     0.0   601.7 
 152   21:20    1.0   -148  -100.0     0      0.0     0.0   601.8 
 152   21:30    0.0   -148  -100.0     0      0.0     0.0   601.8 
 152   21:40    1.0   -148  -100.0     0      0.0     0.0   601.7 
 152   21:50    1.0   -148  -100.0     0      0.0     0.0   601.7 
 152   22:00    1.0   -148  -100.0     0      0.0     0.0   601.8 
 152   22:10    2.0   -148  -100.0     0      0.0     0.0   601.8 
 152   22:20    0.0   -148  -100.0     0      0.0     0.0   601.7 
 152   22:30    0.0   -148  -100.0     0      0.0     0.0   601.7 
 152   22:40    0.0   -148  -100.0     0      0.0     0.0   601.7 
 152   22:50    1.0   -148  -100.0     0      0.0     0.0   601.7 
 152   23:00    0.0   -148  -100.0     0      0.0     0.0   601.6 
 152   23:10    1.0   -148  -100.0     0      0.0     0.0   601.5 
 152   23:20    1.0   -148  -100.0     0      0.0     0.0   601.5 
 152   23:30    0.0   -148  -100.0     0      0.0     0.0   601.4 
 152   23:40    1.0   -148  -100.0     0      0.0     0.0   601.5 
 152   23:50    1.0   -148  -100.0     0      0.0     0.0   601.4 
 153    0:00    1.0   -148  -100.0     0      0.0     0.0   601.5 
 153    0:10    2.0   -148  -100.0     0      0.0     0.0   601.4 
 153    0:20    1.0   -148  -100.0     0      0.0     0.0   601.4 
 153    0:30    1.0   -148  -100.0     0      0.0     0.0   601.3 
 153    0:40    0.0   -148  -100.0     0      0.0     0.0   601.3 
 153    0:50    1.0   -148  -100.0     0      0.0     0.0   601.2 
 153    1:00    0.0   -148  -100.0     0      0.0     0.0   601.3 
 153    1:10    1.0   -148  -100.0     0      0.0     0.0   601.2 
 153    1:20    1.0   -148  -100.0     0      0.0     0.0   601.1 
 153    1:30    1.0   -148  -100.0     0      0.0     0.0   601.1 
 153    1:40    1.0   -148  -100.0     0      0.0     0.0   601.1 
 153    1:50    2.0   -148  -100.0     0      0.0     0.0   600.9 
 153    2:00    1.0   -148  -100.0     0      0.0     0.0   600.9 
 153    2:10    1.0   -148  -100.0     0      0.0     0.0   600.9 
 153    2:20    1.0   -148  -100.0     0      0.0     0.0   600.9 
 153    2:30    1.0   -148  -100.0     0      0.0     0.0   600.8 
 153    2:40    2.0   -148  -100.0     0      0.0     0.0   600.9 
 153    2:50    1.0   -148  -100.0     0      0.0     0.0   600.8 
 153    3:00    1.0   -148  -100.0     0      0.0     0.0   600.7 
 153    3:10    0.0   -148  -100.0     0      0.0     0.0   600.6 
 153    3:20    1.0   -148  -100.0     0      0.0     0.0   600.6 
 153    3:30    2.0   -148  -100.0     0      0.0     0.0   600.6 
 153    3:40    2.0   -148  -100.0     0      0.0     0.0   600.6 
 153    3:50    1.0   -148  -100.0     0      0.0     0.0   600.6 
 153    4:00    1.0   -148  -100.0     0      0.0     0.0   600.6 
 153    4:10    0.0   -148  -100.0     0      0.0     0.0   600.6 
 153    4:20    0.0   -148  -100.0     0      0.0     0.0   600.7 
 153    4:30    1.0   -148  -100.0     0      0.0     0.0   600.7 
 153    4:40    1.0   -148  -100.0     0      0.0     0.0   600.7 
 153    4:50    2.0   -148  -100.0     0      0.0     0.0   600.7 
 153    5:00    1.0   -148  -100.0     0      0.0     0.0   600.7 
 153    5:10    1.0   -148  -100.0     0      0.0     0.0   600.8 
 153    5:20    1.0   -148  -100.0     0      0.0     0.0   600.9 
 153    5:30    1.0   -148  -100.0     0      0.0     0.0   600.8 
 153    5:40    1.0   -148  -100.0     0      0.0     0.0   600.8 
 153    5:50    1.0   -148  -100.0     0      0.0     0.0   600.9 
 153    6:00    1.0   -148  -100.0     0      0.0     0.0   601.0 
 153    6:10    1.0   -148  -100.0     0      0.0     0.0   601.1 
 153    6:20    1.0   -148  -100.0     0      0.0     0.0   601.1 
 153    6:30    0.0   -148  -100.0     0      0.0     0.0   601.1 
 153    6:40    0.0   -148  -100.0     0      0.0     0.0   601.2 
 153    6:50    0.0   -148  -100.0     0      0.0     0.0   601.4 
 153    7:00    0.0   -148  -100.0     0      0.0     0.0   601.4 
 153    7:10    0.0   -148  -100.0     0      0.0     0.0   601.4 
 153    7:20    0.0   -148  -100.0     0      0.0     0.0   601.5 
 153    7:30    2.0   -148  -100.0     0      0.0     0.0   601.6 
 153    7:40    0.0   -148  -100.0     0      0.0     0.0   601.6 
 153    7:50    0.0   -148  -100.0     0      0.0     0.0   601.7 
 153    8:00    0.0   -148  -100.0     0      0.0     0.0   601.8 
 153    8:10    2.0   -148  -100.0     0      0.0     0.0   601.9 
 153    8:20    2.0   -148  -100.0     0      0.0     0.0   602.0 
 153    8:30    1.0   -148  -100.0     0      0.0     0.0   602.1 
 153    8:40    0.0   -148  -100.0     0      0.0     0.0   602.0 
 153    8:50    3.0   -148  -100.0     0      0.0     0.0   602.1 
 153    9:00    0.0   -148  -100.0     0      0.0     0.0   602.1 
 153    9:10    2.0   -148  -100.0     0      0.0     0.0   602.1 
 153    9:20    2.0   -148  -100.0     0      0.0     0.0   602.2 
 153    9:30    2.0   -148  -100.0     0      0.0     0.0   602.4 
 153    9:40    1.0   -148  -100.0     0      0.0     0.0   602.4 
 153    9:50    3.0   -148  -100.0     0      0.0     0.0   602.5 
 153   10:00    3.0   -148  -100.0     0      0.0     0.0   602.7 
 153   10:10    3.0   -148  -100.0     0      0.0     0.0   602.7 
 153   10:20    2.0   -148  -100.0     0      0.0     0.0   602.7 
 153   10:30    3.0   -148  -100.0     0      0.0     0.0   603.0 
 153   10:40    4.0   -148  -100.0     0      0.0     0.0   603.0 
 153   10:50    6.0   -148  -100.0     0      0.0     0.0   603.1 
 153   11:00    6.0   -148  -100.0     0      0.0     0.0   603.1 

Return to White Mountain graphs page.


Western Regional Climate Center,wrcc@dri.edu